Home   Weather   George Town   Past weeks

Flag for Cayman Islands Past Weather in George Town, Cayman Islands — Yesterday and Last 2 Weeks

82 °F

Passing clouds.

Feels Like: 89 °F
Forecast: 82 / 85 °F
Wind: 9 mph from East

Location: Owen Roberts Airportgrand Cayman

Current Time: Oct 24, 2016 at 2:06:24 AM

Latest Report: Oct 23, 2016 at 11:00 PM

Visibility: N/A

Pressure: 30.01 "Hg

Humidity: 79%

Dew Point: 75 °F

Location of George TownLocation

Past Weather in George Town — Graph


George Town Temperature Yesterday

Maximum temperature yesterday: 88 °F (at 11:00 AM)
Minimum temperature yesterday: 82 °F (at 5:56 AM)
Average temperature yesterday: 85 °F

High & Low Weather Summary for the Past Weeks

High90 °F (Oct 9, 10:00 AM)100% (Oct 12, 6:00 AM)30.01 "Hg (Oct 12, 6:00 AM)
Low77 °F (Oct 12, 6:00 AM)59% (Oct 19, 1:55 PM)29.74 "Hg (Oct 17, 3:00 PM)
Average84 °F79%29.87 "Hg
* Reported Oct 9 6:00 AM — Oct 23 11:00 PM, George Town, Weather by CustomWeather, © 2016

Note: Actual official high and low records may vary slightly from our data, if they occured in-between our weather recording intervals... More about our weather records


George Town Weather History for the Previous 24 Hours

Scroll right to see more
Time TempWeatherWind HumidityBarometerVisibility
11:00 PM
Sun, Oct 23
82 °FPassing clouds.9 mph79%30.01 "HgN/A
10:00 PM82 °FPassing clouds.10 mph74%30.01 "HgN/A
9:00 PM82 °FPassing clouds.15 mph74%30.01 "HgN/A
8:00 PM82 °FPassing clouds.12 mph74%29.98 "HgN/A
7:00 PM82 °FPassing clouds.12 mph79%29.98 "HgN/A
6:00 PM84 °FPassing clouds.16 mph74%29.98 "HgN/A
5:00 PM86 °FPassing clouds.17 mph70%29.95 "HgN/A
4:00 PM86 °FScattered clouds.16 mph70%29.95 "HgN/A
3:00 PM88 °FScattered clouds.17 mph66%29.95 "HgN/A
1:50 PM88 °FPassing clouds.17 mph66%29.95 "HgN/A
12:54 PM88 °FScattered clouds.15 mph66%29.98 "HgN/A
11:50 AM88 °FScattered clouds.16 mph66%30.01 "HgN/A
11:00 AM88 °FPassing clouds.14 mph66%30.01 "HgN/A
9:50 AM84 °FScattered showers. Partly sunny.14 mph74%30.01 "HgN/A
8:50 AM84 °FScattered showers. Scattered clouds.10 mph74%30.01 "HgN/A
7:53 AM84 °FScattered showers. Passing clouds.9 mph70%29.98 "HgN/A
6:54 AM82 °FPassing clouds.12 mph74%29.98 "HgN/A
5:56 AM82 °FPassing clouds.8 mph79%29.95 "HgN/A
Weather by CustomWeather, © 2016

See weather overviewHow to use our weather pages